Regional Weather Roundup
Issued by NWS

Home | Current Version | Previous Version | Text Only | Print | Product List | Glossary On
Versions: 1 2 3 4 5 6 7 8 9 10 11 12 13 14 15 16 17 18 19 20 21 22 23 24 25 26 27 28 29 30 31 32 33 34 35 36 37 38 39 40 41 42 43 44 45 46 47 48 49 50
000
ASUS43 KTOP 090708
RWRKS

WEATHER ROUNDUP FOR KANSAS
NATIONAL WEATHER SERVICE GOODLAND KS
100 AM CST TUE FEB 09 2016

NOTE:  "FAIR" INDICATES FEW OR NO CLOUDS BELOW 12,000 FEET WITH NO
SIGNIFICANT WEATHER AND/OR OBSTRUCTIONS TO VISIBILITY.

KSZ001>006-013>018-027>032-041>047-090800-
NORTHWEST KANSAS

CITY           SKY/WX    TMP DP  RH WIND       PRES   REMARKS
GOODLAND       CLEAR     29  23  78 NW12      30.24S WCI  19
HAYS           CLOUDY    34  16  47 NW12      30.22F WCI  25
HILL CITY      CLOUDY    33  24  69 W6        30.22F
RUSSELL        CLOUDY    32  21  64 NW13      30.20F WCI  22
$$

KSZ061>065-074>080-084>089-090800-
SOUTHWEST KANSAS

CITY           SKY/WX    TMP DP  RH WIND       PRES   REMARKS
DODGE CITY     CLEAR     30  20  66 NW15      30.26R WCI  19
ELKHART          N/A     37  19  48 NW15        N/A  WCI  28
GARDEN CITY    CLEAR     28  22  78 NW9       30.26F
GREAT BEND     MOCLDY    30  18  59 NW13      30.22F WCI  20
LIBERAL        CLEAR     27  18  69 W9        30.28S
PRATT          CLEAR     27  17  65 NW12      30.22S WCI  17
$$

KSZ066>073-081>083-090>101-090800-
SOUTHEAST KANSAS

CITY           SKY/WX    TMP DP  RH WIND       PRES   REMARKS
CHANUTE        MOCLDY    31  19  61 W13       30.12F WCI  21
COFFEYVILLE    CLEAR     30  18  60 NW8       30.16F
HUTCHINSON     CLEAR     30  18  60 NW14      30.19F WCI  19
MEDICINE LODGE   N/A     27  16  63 NW7       30.23S
NEWTON         CLEAR     28  16  59 NW13      30.17F WCI  18
PARSONS        PTCLDY    31  19  61 NW9       30.14F
WICHITA INTL   PTCLDY    29  19  66 NW10      30.19F WCI  20
WICHITA JABRA  CLEAR     32  18  56 NW13      30.17F WCI  22
WICHITA MCCONL CLEAR     32  18  56 NW10      30.17F WCI  24
WINFIELD       CLEAR     30  19  63 NW12      30.20F WCI  20
$$

KSZ007>012-019>026-033>040-048>060-102>105-090800-
NORTHEAST KANSAS

CITY           SKY/WX    TMP DP  RH WIND       PRES   REMARKS
CONCORDIA      CLEAR     27  17  66 NW9       30.16F
EMPORIA        CLEAR     30  18  60 NW13      30.11F WCI  20
LAWRENCE       CLOUDY    31  20  63 NW10      30.08F WCI  22
MANHATTAN      CLEAR     30  20  66 W8        30.15F
MARYSVILLE     CLOUDY    32  21  64 NW13      30.11F WCI  22
OLATHE IND     MOCLDY    30  18  60 NW15G25   30.06F WCI  19
OLATHE EXE     CLEAR     28  17  63 NW14      30.05F WCI  17
SALINA         CLEAR     33  18  53 NW15      30.18F WCI  23
TOPEKA BILLARD CLOUDY    33  20  58 NW14      30.09F WCI  23
TOPEKA FORBES  CLOUDY    34  20  56 NW23G29   30.07F WCI  22
$$



USA.gov is the U.S. government's official web portal to all federal, state and local government web resources and services.